When you browse on this site, cookies collect data to enhance your experience and personalize the content and advertising you see.
Visit our Privacy Policy to learn more. By continuing to use the site, you agree to this use of cookies and data.
  • In Slovakia
  • List of Countries
  • For 7 days
  • Water Temperature
  • Satellite Maps
  • Weather Map
  • Weather Widgets
  • user-avatar
    Login

    Hourly Weather Gamow

    Today, 17 December, Monday

    Time Temperature Precipitation Wind Pressure Humidity
    00:00 -6°C° 0 mm 3 mps 741 mmHg 83%
    01:00 -6°C° 0 mm 3 mps 741 mmHg 83%
    02:00 -6°C° 0 mm 3 mps 741 mmHg 83%
    03:00 -6°C° 0 mm 3 mps 741 mmHg 84%
    04:00 -5°C° 0 mm 3 mps 741 mmHg 84%
    05:00 -4°C° 0 mm 2 mps 741 mmHg 84%
    06:00 -4°C° 0 mm 2 mps 741 mmHg 85%
    07:00 -4°C° 0 mm 2 mps 741 mmHg 85%
    08:00 -4°C° 0 mm 2 mps 742 mmHg 84%
    09:00 -3°C° 0 mm 2 mps 742 mmHg 82%
    10:00 -2°C° 0 mm 2 mps 743 mmHg 80%
    11:00 -2°C° 0 mm 2 mps 743 mmHg 79%
    12:00 -1°C° 0 mm 2 mps 743 mmHg 79%
    13:00 +2°C° 0 mm 1 mps 743 mmHg 78%
    14:00 +1°C° 0 mm 1 mps 743 mmHg 81%
    15:00 0°C° 0 mm 1 mps 744 mmHg 84%
    16:00 -1°C° 0 mm 1 mps 744 mmHg 87%
    17:00 -1°C° 0 mm 1 mps 744 mmHg 87%
    18:00 -1°C° 0 mm 1 mps 745 mmHg 87%
    19:00 0°C° 0 mm 1 mps 745 mmHg 87%
    20:00 0°C° 0 mm 1 mps 746 mmHg 87%
    21:00 0°C° 0 mm 1 mps 746 mmHg 87%
    22:00 0°C° 0 mm 1 mps 747 mmHg 87%
    23:00 0°C° 0 mm 1 mps 747 mmHg 87%

    Tomorrow, 18 December, Tuesday

    Time Temperature Precipitation Wind Pressure Humidity
    00:00 0°C° 0 mm 1 mps 747 mmHg 87%
    01:00 0°C° 0 mm 1 mps 747 mmHg 88%
    02:00 0°C° 0 mm 1 mps 747 mmHg 88%
    03:00 0°C° 0 mm 1 mps 747 mmHg 88%
    04:00 0°C° 0 mm 1 mps 747 mmHg 88%
    05:00 0°C° 0 mm 1 mps 747 mmHg 88%
    06:00 0°C° 0 mm 1 mps 747 mmHg 88%
    07:00 0°C° 0 mm 1 mps 747 mmHg 88%
    08:00 0°C° 0 mm 1 mps 747 mmHg 87%
    09:00 +1°C° 0 mm 1 mps 748 mmHg 85%
    10:00 +2°C° 0 mm 1 mps 748 mmHg 84%
    11:00 +2°C° 0 mm 1 mps 747 mmHg 83%
    12:00 +3°C° 0 mm 1 mps 747 mmHg 82%
    13:00 +3°C° 0 mm 1 mps 747 mmHg 81%
    14:00 +2°C° 0 mm 1 mps 747 mmHg 84%
    15:00 +1°C° 0 mm 1 mps 747 mmHg 86%
    16:00 +1°C° 0 mm 1 mps 747 mmHg 88%
    17:00 0°C° 0 mm 1 mps 747 mmHg 88%
    18:00 0°C° 0 mm 1 mps 746 mmHg 89%
    19:00 0°C° 0 mm 1 mps 746 mmHg 89%
    20:00 0°C° 0 mm 1 mps 746 mmHg 89%
    21:00 0°C° 0 mm 1 mps 746 mmHg 89%
    22:00 0°C° 0 mm 1 mps 746 mmHg 89%
    23:00 0°C° 0 mm 1 mps 746 mmHg 89%

    Day after tomorrow, 19 December, Wednesday

    Time Temperature Precipitation Wind Pressure Humidity
    00:00 -1°C° 0 mm 1 mps 746 mmHg 89%
    01:00 -3°C° 0 mm 2 mps 745 mmHg 89%
    02:00 -3°C° 0 mm 2 mps 745 mmHg 89%
    03:00 -3°C° 0 mm 2 mps 745 mmHg 89%
    04:00 -3°C° 0 mm 2 mps 745 mmHg 89%
    05:00 -3°C° 0 mm 2 mps 745 mmHg 88%
    06:00 -3°C° 0 mm 2 mps 745 mmHg 88%
    07:00 -3°C° 0 mm 2 mps 745 mmHg 87%
    08:00 -3°C° 0 mm 2 mps 745 mmHg 84%
    09:00 -2°C° 0 mm 2 mps 745 mmHg 81%
    10:00 -1°C° 0 mm 2 mps 745 mmHg 78%
    11:00 -1°C° 0 mm 2 mps 744 mmHg 76%
    12:00 +1°C° 0 mm 2 mps 744 mmHg 74%
    13:00 +2°C° 0 mm 2 mps 744 mmHg 72%
    14:00 +1°C° 0 mm 2 mps 744 mmHg 75%
    15:00 -1°C° 0 mm 2 mps 743 mmHg 77%
    16:00 -2°C° 0 mm 2 mps 743 mmHg 80%
    17:00 -2°C° 0 mm 2 mps 743 mmHg 81%
    18:00 -2°C° 0 mm 3 mps 743 mmHg 81%
    19:00 -2°C° 0 mm 3 mps 743 mmHg 82%
    20:00 -2°C° 0 mm 3 mps 743 mmHg 82%
    21:00 -2°C° 0 mm 3 mps 743 mmHg 81%
    22:00 -2°C° 0 mm 3 mps 743 mmHg 81%
    23:00 -2°C° 0 mm 3 mps 743 mmHg 80%

    20 December, Thursday

    Time Temperature Precipitation Wind Pressure Humidity
    00:00 -2°C° 0 mm 3 mps 743 mmHg 80%
    01:00 -2°C° 0 mm 3 mps 743 mmHg 79%
    02:00 -2°C° 0 mm 2 mps 742 mmHg 78%
    03:00 -2°C° 0 mm 2 mps 742 mmHg 78%
    04:00 -2°C° 0 mm 2 mps 742 mmHg 78%
    05:00 -2°C° 0 mm 2 mps 742 mmHg 77%
    06:00 -2°C° 0 mm 2 mps 742 mmHg 77%
    07:00 -2°C° 0 mm 2 mps 742 mmHg 77%
    08:00 -2°C° 0 mm 2 mps 742 mmHg 76%
    09:00 -2°C° 0 mm 3 mps 742 mmHg 75%
    10:00 -1°C° 0 mm 3 mps 742 mmHg 74%
    11:00 -1°C° 0 mm 3 mps 742 mmHg 74%
    12:00 -1°C° 0 mm 3 mps 742 mmHg 73%
    13:00 -1°C° 0 mm 3 mps 741 mmHg 73%
    14:00 -1°C° 0 mm 3 mps 741 mmHg 75%
    15:00 -1°C° 0 mm 3 mps 741 mmHg 77%
    16:00 -2°C° 0 mm 2 mps 741 mmHg 80%
    17:00 -2°C° 0 mm 2 mps 741 mmHg 81%
    18:00 -2°C° 0 mm 2 mps 741 mmHg 81%
    19:00 -2°C° 0 mm 2 mps 741 mmHg 82%
    20:00 -2°C° 0 mm 2 mps 741 mmHg 83%
    21:00 -2°C° 0 mm 3 mps 742 mmHg 83%
    22:00 -2°C° 0 mm 3 mps 742 mmHg 83%
    23:00 -2°C° 0.1 mm 3 mps 742 mmHg 84%

    21 December, Friday

    Time Temperature Precipitation Wind Pressure Humidity
    00:00 -2°C° 0.1 mm 2 mps 741 mmHg 85%
    01:00 -2°C° 0.1 mm 2 mps 741 mmHg 86%
    02:00 -2°C° 0.3 mm 2 mps 741 mmHg 88%
    03:00 -2°C° 0.3 mm 2 mps 741 mmHg 89%
    04:00 -2°C° 0.3 mm 2 mps 741 mmHg 91%
    05:00 -2°C° 0.4 mm 2 mps 741 mmHg 91%
    06:00 -2°C° 0.4 mm 2 mps 741 mmHg 92%
    07:00 -2°C° 0.4 mm 2 mps 741 mmHg 92%
    08:00 -1°C° 0.3 mm 2 mps 741 mmHg 92%
    09:00 -1°C° 0.3 mm 2 mps 741 mmHg 91%
    10:00 -1°C° 0.3 mm 2 mps 741 mmHg 91%
    11:00 +1°C° 0.1 mm 2 mps 741 mmHg 90%
    12:00 +1°C° 0.1 mm 2 mps 741 mmHg 90%
    13:00 +2°C° 0.1 mm 2 mps 741 mmHg 89%
    14:00 +1°C° 0 mm 2 mps 741 mmHg 90%
    15:00 +1°C° 0 mm 2 mps 741 mmHg 91%
    16:00 -1°C° 0 mm 2 mps 741 mmHg 91%
    17:00 -1°C° 0 mm 2 mps 741 mmHg 91%
    18:00 -1°C° 0 mm 2 mps 741 mmHg 92%
    19:00 -1°C° 0 mm 2 mps 741 mmHg 92%
    20:00 -1°C° 0 mm 2 mps 741 mmHg 92%
    21:00 -1°C° 0 mm 2 mps 741 mmHg 92%
    22:00 -1°C° 0 mm 2 mps 741 mmHg 92%
    23:00 -1°C° 0 mm 3 mps 741 mmHg 92%

    22 December, Saturday

    Time Temperature Precipitation Wind Pressure Humidity
    00:00 -1°C° 0 mm 3 mps 740 mmHg 92%
    01:00 -1°C° 0 mm 3 mps 740 mmHg 92%
    02:00 -1°C° 0.1 mm 3 mps 740 mmHg 92%
    03:00 0°C° 0.1 mm 3 mps 739 mmHg 91%
    04:00 0°C° 0.1 mm 3 mps 739 mmHg 91%
    05:00 0°C° 0.2 mm 3 mps 739 mmHg 91%
    06:00 0°C° 0.2 mm 3 mps 739 mmHg 91%
    07:00 0°C° 0.2 mm 3 mps 739 mmHg 90%
    08:00 0°C° 0.4 mm 3 mps 739 mmHg 91%
    09:00 0°C° 0.4 mm 3 mps 739 mmHg 91%
    10:00 +1°C° 0.4 mm 3 mps 739 mmHg 91%
    11:00 +1°C° 0.2 mm 3 mps 739 mmHg 91%
    12:00 +2°C° 0.2 mm 2 mps 739 mmHg 92%
    13:00 +2°C° 0.2 mm 2 mps 739 mmHg 93%
    14:00 +2°C° 0.3 mm 2 mps 740 mmHg 93%
    15:00 +2°C° 0.3 mm 2 mps 740 mmHg 93%
    16:00 +3°C° 0.3 mm 1 mps 740 mmHg 94%
    17:00 +3°C° 0.2 mm 1 mps 741 mmHg 94%
    18:00 +3°C° 0.2 mm 1 mps 741 mmHg 94%
    19:00 +3°C° 0.2 mm 1 mps 742 mmHg 95%
    20:00 +3°C° 0.1 mm 1 mps 742 mmHg 95%
    21:00 +3°C° 0.1 mm 1 mps 742 mmHg 95%
    22:00 +3°C° 0.1 mm 1 mps 743 mmHg 96%
    23:00 +3°C° 0.1 mm 1 mps 743 mmHg 96%
    Show more